Temp
13 13 13 13 13 13 13 13 13 13 13 13 13 13 13 13 13 12 12 12 13 13 13 12 12 12 13 19 21 23 23 24 23 24 25 26 26 26 26 28 29 29 30 31 31 31 31
13 12 12 12 12 12 12 12 13 13 13 13 13 13 13 13 12 12 13 12 12 12 12 12 13 12 13 16 21 23 24 24 24 24 25 26 26 27 26 26 26 28 28 29 30 30 30
12 12 12 12 12 11 11 11 11 11 11 11 12 12 12 12 12 12 11 12 12 12 12 12 12 11 13 16 19 21 21 22 23 23 24 24 25 25 26 25 27 27 27 28 29 29 29
11 11 11 11 11 11 11 10 10 10 10 10 10 10 10 10 10 11 11 11 11 11 12 12 12 12 13 15 17 19 20 21 22 23 23 23 23 24 24 25 25 24 25 25 27 29 30
10 10 10 10 11 10 10 10 10 10 10 10 10 10 10 10 10 10 11 11 11 11 12 12 12 14 16 20 18 19 20 21 22 24 23 24 24 23 24 23 23 24 23 25 27 30 30
10 10 10 10 10 10 10 10 9 9 9 9 9 9 9 9 10 10 11 11 12 12 13 12 14 14 16 20 22 23 23 23 24 24 24 23 23 22 23 23 22 24 26 27 27 30 31
10 10 10 10 10 10 9 9 9 9 9 9 9 9 9 9 9 10 11 13 15 15 14 16 18 17 23 23 23 23 24 24 24 23 22 24 22 22 24 25 25 25 25 26 28 30 30
10 10 10 10 9 9 9 9 9 9 9 9 9 8 9 9 9 9 9 14 16 14 14 17 17 19 19 20 20 22 23 22 23 21 23 23 23 24 26 26 26 26 26 26 27 29 29
10 9 9 9 9 9 9 9 9 9 9 9 9 8 8 9 9 9 11 14 15 15 14 17 19 19 19 21 20 21 23 23 22 22 23 22 24 25 25 25 25 26 25 26 26 28 29
9 9 9 9 9 9 9 9 9 8 9 9 8 8 8 9 8 12 14 14 15 14 14 18 21 21 21 22 20 23 22 22 22 21 22 22 24 24 25 25 25 23 26 27 27 25 24
9 9 8 8 8 9 9 9 9 9 9 9 9 8 9 9 10 13 14 14 13 13 12 22 23 24 23 21 22 24 23 22 20 21 21 21 23 23 24 24 26 25 26 26 24 22 21
8 8 8 8 8 8 8 8 8 9 9 9 9 9 8 8 9 11 13 12 12 12 13 19 22 21 21 21 22 23 22 23 23 21 22 22 24 24 25 26 26 25 24 22 21 18 17
7 7 7 7 7 7 8 8 8 8 8 8 8 8 8 10 11 12 12 12 10 11 19 19 21 21 21 21 21 22 21 21 20 19 20 21 22 24 24 23 24 24 22 18 17 17 18
6 6 6 6 6 7 7 7 7 7 7 8 8 8 8 9 10 11 10 9 10 15 16 22 23 22 21 21 21 21 21 20 22 21 21 21 20 23 24 23 23 23 22 19 18 20 21
5 5 5 6 6 6 6 7 7 7 7 7 7 7 8 9 9 10 8 8 10 14 18 19 16 17 18 21 22 22 21 19 22 21 20 20 21 24 26 25 24 22 20 22 19 21 19
5 5 5 5 5 5 6 6 6 6 6 7 7 6 8 9 9 9 8 8 10 14 16 14 11 16 16 19 20 21 21 22 20 21 15 18 17 22 24 23 23 22 23 19 17 16 17
5 5 5 5 5 5 5 5 5 5 6 6 4 4 7 9 9 7 7 8 11 14 14 10 11 13 15 16 16 17 17 19 15 16 17 16 15 18 20 20 19 20 18 18 15 16 18
4 5 5 5 5 5 5 5 5 5 5 5 3 5 8 8 7 5 7 10 12 14 14 11 11 12 13 14 14 15 16 12 15 14 14 13 13 15 16 18 20 19 17 18 15 15 14
4 4 4 4 4 5 5 5 5 5 4 4 4 6 7 6 7 7 10 11 12 12 13 8 9 8 8 11 10 14 14 11 12 12 11 12 14 14 17 16 18 16 17 14 11 12 13
4 4 4 4 4 4 4 5 5 5 4 4 3 5 6 6 6 6 10 11 11 13 13 13 8 10 10 11 12 9 10 13 11 12 10 13 14 12 12 12 14 12 15 16 13 13 15
4 4 4 4 4 4 4 4 5 4 3 2 2 5 7 6 6 7 8 8 11 11 10 8 10 10 10 9 10 10 10 10 12 11 13 12 12 12 12 13 15 15 16 14 13 13 13
4 4 4 4 4 4 4 4 4 4 3 1 3 6 8 6 9 8 8 7 9 10 8 8 7 8 8 7 7 7 7 8 7 10 12 11 10 10 9 13 14 13 14 15 15 14 14
4 4 4 4 4 4 4 4 4 4 3 1 3 5 5 6 8 7 7 8 9 10 10 10 9 8 9 9 6 7 9 9 9 9 10 8 9 10 10 13 13 11 14 16 15 18 18
3 4 4 4 4 4 4 4 4 4 3 4 5 6 5 6 8 7 9 8 9 10 9 10 10 9 10 9 9 9 10 10 11 12 12 11 10 10 10 11 9 14 17 16 14 13 16
3 3 4 4 3 3 4 4 4 4 3 4 6 5 5 7 9 8 8 7 9 10 9 9 11 11 11 10 7 7 8 10 12 12 13 13 11 10 10 11 12 13 15 16 16 14 18
3 3 3 4 4 3 3 4 4 3 4 3 4 5 6 5 8 9 8 9 9 9 9 10 11 12 10 8 7 6 7 9 9 13 15 14 12 11 10 10 10 14 17 19 18 13 18
4 3 3 4 3 4 3 3 3 3 4 3 4 5 5 5 9 8 7 7 9 9 9 10 9 8 9 7 6 6 7 10 9 10 12 10 8 9 9 10 12 15 16 17 11 15 18
4 3 3 3 3 3 3 3 3 3 4 3 4 5 6 6 8 10 10 10 10 10 9 9 8 7 8 6 6 7 7 9 9 11 11 11 11 10 9 9 10 16 15 14 15 16 17
4 3 3 3 3 3 3 3 3 3 4 3 4 4 5 5 7 7 9 10 10 10 9 8 7 8 5 5 6 6 6 6 8 9 13 11 11 9 8 9 11 11 16 14 11 14 14
Height
784 785 787 790 792 793 794 794 797 796 798 799 799 800 801 800 800 801 801 801 800 799 799 799 797 797 793 784 774 772 768 764 764 764 763 761 760 757 756 745 738 740 728 721 719 718 716
779 780 783 786 788 791 791 793 794 795 796 797 796 798 798 797 798 798 798 800 798 796 796 797 796 796 797 787 769 766 764 763 762 761 760 759 755 751 749 749 749 741 735 728 721 719 715
775 778 780 781 784 787 789 790 792 792 793 795 796 796 796 795 796 795 796 796 796 794 793 793 794 794 788 773 767 762 760 758 758 758 756 756 756 756 749 751 740 737 739 727 722 717 716
771 775 777 778 780 783 785 789 790 791 791 792 794 794 795 794 795 794 793 793 792 793 793 792 790 792 775 763 759 757 752 750 751 751 752 752 754 751 752 746 746 751 744 745 722 711 703
769 772 775 777 779 781 783 785 787 789 789 791 792 792 794 794 793 793 792 791 790 791 790 792 791 786 767 753 752 747 749 745 745 743 745 746 748 747 748 754 755 748 748 740 720 700 695
764 768 770 773 776 777 781 784 785 786 786 789 791 791 791 791 790 791 789 789 788 787 787 789 786 789 762 746 742 739 740 742 740 738 741 744 746 749 744 749 751 740 729 716 713 695 685
758 763 768 771 772 775 777 780 782 783 786 787 787 790 792 791 790 788 787 786 787 780 780 769 762 756 737 736 737 738 737 737 737 738 745 733 744 742 734 725 727 725 724 718 702 688 688
754 760 763 768 770 771 775 777 780 780 783 787 788 788 789 791 790 788 786 780 780 783 772 762 756 744 743 746 737 734 737 737 734 740 733 736 726 723 714 711 714 711 715 710 699 691 691
749 752 759 765 767 768 772 776 776 778 780 784 785 787 789 789 790 788 785 780 778 778 775 747 738 730 728 735 727 723 731 727 730 730 728 731 706 712 713 715 713 707 708 707 706 692 682
744 750 754 759 762 765 769 771 775 777 777 781 784 784 786 790 791 785 780 779 780 781 774 730 716 706 712 720 717 711 715 721 722 721 724 719 704 711 710 704 704 716 697 694 694 704 714
738 746 751 754 757 763 767 767 770 774 777 778 780 784 785 786 785 784 783 780 781 784 780 706 693 691 700 710 699 690 697 710 713 715 725 700 706 711 707 697 693 696 690 694 701 716 720
736 740 748 753 755 759 763 767 767 769 772 776 778 779 784 787 785 784 783 783 786 784 759 712 692 700 704 703 703 692 699 701 700 710 711 693 696 696 690 683 680 686 693 706 713 732 738
735 738 745 749 752 756 760 762 765 766 769 773 774 777 779 782 782 782 781 783 786 766 717 705 695 694 699 699 700 698 700 702 709 716 708 697 690 684 686 692 684 690 706 731 735 733 717
732 736 742 747 750 753 755 758 761 763 766 769 771 773 773 778 779 782 782 782 766 733 724 684 681 687 690 688 688 693 698 697 693 697 695 697 701 677 673 680 681 688 696 712 714 709 692
731 733 738 743 747 750 751 755 756 761 763 766 768 769 771 771 776 779 784 771 752 735 711 711 720 710 702 683 682 684 689 700 685 687 694 689 683 663 652 657 668 673 692 677 702 689 697
727 730 734 739 742 743 747 750 753 759 761 765 768 769 761 765 770 775 773 758 750 732 726 728 739 715 709 692 686 685 685 677 682 683 699 690 696 662 654 662 663 668 665 692 696 709 699
723 727 731 733 738 740 744 747 749 755 759 762 766 769 756 761 765 767 759 755 744 736 734 747 738 725 713 711 706 701 696 686 701 701 696 703 698 677 671 670 681 675 684 683 697 692 683
720 721 724 730 731 737 739 742 747 752 756 758 762 764 754 757 759 757 748 738 737 729 728 743 743 732 724 721 719 713 705 718 711 709 708 712 711 694 689 676 667 668 678 670 692 699 701
717 717 719 724 728 730 734 736 741 747 752 753 756 755 750 753 744 741 730 733 735 733 728 751 746 748 749 738 737 714 711 727 721 719 723 719 704 698 679 676 675 678 677 688 710 696 690
708 710 715 715 721 724 729 733 733 741 746 752 753 749 749 748 747 737 726 724 725 724 725 728 747 741 740 734 730 741 732 720 725 720 725 712 703 709 710 707 704 703 689 679 688 692 679
701 703 705 707 714 719 722 729 729 738 740 746 748 740 737 736 737 737 732 731 724 725 732 742 736 734 735 742 733 735 735 729 719 723 714 714 711 713 712 706 692 686 681 686 695 691 689
688 691 695 700 705 711 717 723 729 734 738 744 743 738 732 735 723 730 730 736 728 725 737 741 746 745 747 751 753 750 751 744 742 723 712 719 714 716 715 701 695 695 691 682 679 684 682
673 679 685 691 697 704 711 717 723 728 734 736 740 739 736 731 727 733 731 730 728 728 733 734 736 742 741 743 753 751 747 743 738 735 719 724 716 714 708 692 695 701 676 668 670 657 656
660 667 674 681 687 695 703 710 716 721 725 730 733 734 734 726 725 729 722 732 729 728 735 729 733 739 740 745 744 740 733 726 723 715 713 713 715 719 714 707 718 683 669 669 674 673 656
646 653 661 670 678 686 694 702 708 714 720 726 727 732 728 723 718 722 727 731 729 728 732 732 728 731 734 739 745 741 727 711 698 694 695 698 704 714 713 698 691 682 667 663 661 664 640
632 640 649 658 668 677 686 694 701 708 715 722 725 728 729 731 720 721 723 724 726 727 728 726 725 726 732 738 741 744 734 712 709 680 672 679 690 701 701 701 693 657 651 641 648 664 638
619 628 638 648 658 668 678 686 694 702 710 718 721 725 730 727 717 723 726 726 724 722 722 721 727 734 733 738 740 735 728 711 708 694 682 693 703 694 697 695 671 653 652 650 680 656 632
608 618 628 639 649 660 669 679 688 697 705 713 718 722 724 723 718 716 718 717 718 718 722 722 731 734 730 737 732 725 721 710 700 688 683 680 684 688 683 687 677 649 651 654 650 646 639
598 609 620 630 643 654 663 674 683 692 700 710 716 719 723 727 722 721 718 718 719 720 722 726 730 727 737 736 730 731 728 721 708 696 676 681 681 690 698 682 668 660 646 652 662 647 644
Wind_Speed
19 17 16 16 15 14 13 12 12 11 11 11 11 13 15 16 17 17 18 18 18 18 18 18 18 21 15 8 17 23 30 18 11 12 14 14 15 17 19 17 18 21 20 20 20 22 21
22 20 18 16 15 13 12 11 11 9 8 9 8 10 12 12 14 15 17 18 18 19 20 20 19 18 10 19 16 17 12 12 15 16 19 19 16 18 20 18 19 21 24 25 24 24 22
22 20 18 17 15 14 13 11 10 9 8 7 7 7 8 8 10 11 11 12 14 14 15 16 16 12 11 23 18 21 26 26 26 25 21 26 24 18 15 20 15 21 21 20 21 22 24
21 19 17 16 15 14 13 12 11 10 9 8 8 7 7 6 6 7 8 10 11 11 13 12 11 10 9 18 26 31 33 30 27 26 26 24 23 21 21 19 23 23 24 22 18 23 24
20 19 16 14 13 13 14 13 12 11 10 10 11 12 13 13 12 12 11 11 10 12 12 9 7 10 15 17 18 23 24 24 20 18 18 18 15 19 16 18 17 18 21 25 27 23 24
21 19 18 15 14 14 14 14 13 12 11 11 11 10 10 10 11 13 15 16 14 17 12 11 15 7 12 11 22 14 12 13 12 9 13 11 8 13 14 14 17 18 20 21 23 21 21
22 20 19 17 16 16 15 15 14 12 12 10 7 5 6 6 7 7 9 8 7 7 18 11 10 11 8 10 6 11 14 14 16 16 17 18 15 18 20 21 24 23 24 27 23 24 23
22 21 20 19 17 15 15 15 14 12 11 10 7 6 5 6 7 7 5 4 5 4 12 21 26 30 35 32 27 23 20 15 16 20 20 18 25 22 23 22 24 25 26 26 23 23 21
22 20 19 18 16 15 15 15 14 12 12 12 10 8 7 6 9 10 10 14 9 7 8 18 29 31 33 31 33 30 22 24 22 24 22 21 31 21 25 24 27 24 26 22 26 23 23
21 20 19 18 17 17 16 15 14 13 13 12 11 9 8 6 7 9 12 8 8 2 6 13 18 18 27 24 31 28 38 27 28 31 25 23 26 25 25 30 25 20 25 25 24 20 16
22 20 18 17 17 17 16 16 14 13 12 11 11 11 10 9 12 9 7 8 2 2 5 8 3 6 5 19 8 11 36 24 32 30 22 36 27 23 27 29 25 27 22 21 12 15 16
19 18 17 16 17 17 16 16 16 16 15 14 12 11 11 9 10 15 11 7 1 5 11 7 6 10 10 17 22 4 4 23 25 26 26 35 25 27 28 25 19 15 13 15 15 7 7
17 15 16 16 16 16 17 18 18 17 16 16 15 14 14 13 15 9 14 3 6 9 9 13 18 14 15 18 20 21 15 14 17 16 22 30 32 29 27 26 22 17 13 3 6 8 12
14 15 15 14 14 14 15 16 18 18 17 16 16 15 15 21 19 18 8 4 11 14 29 12 7 11 18 19 20 21 22 20 19 24 15 19 20 31 25 28 28 21 20 11 14 13 16
15 14 15 15 16 16 16 15 17 18 17 15 13 13 20 24 21 19 5 9 7 20 14 19 18 19 23 25 15 15 20 21 22 22 26 16 27 27 24 28 28 32 19 25 20 22 13
16 15 15 17 17 16 16 16 17 18 17 16 10 9 26 23 22 16 8 14 11 21 23 16 5 13 18 18 20 20 23 20 22 22 16 13 19 29 25 1 18 16 16 18 6 8 7
19 19 18 19 20 18 18 19 20 21 20 17 5 1 8 24 22 6 9 8 17 24 21 2 8 15 18 16 16 21 18 18 12 15 5 6 4 15 12 13 19 8 12 9 4 5 6
23 22 21 21 20 20 19 19 20 23 21 19 7 3 5 14 8 3 11 13 12 16 6 4 5 12 18 19 20 20 16 8 9 6 4 7 5 5 7 18 22 9 8 10 5 6 4
27 26 24 23 22 21 20 20 20 23 28 12 4 4 7 6 11 12 15 20 21 20 20 5 3 6 8 7 7 11 14 5 7 4 3 2 3 5 10 5 8 2 10 3 3 3 4
31 31 30 27 24 23 22 20 19 21 29 19 3 3 4 4 7 10 19 21 22 21 19 14 5 8 12 14 11 10 18 7 3 3 4 4 4 4 7 11 12 10 15 10 3 2 3
36 34 33 31 31 26 24 21 17 25 19 10 2 4 4 5 11 17 9 2 18 19 9 9 5 10 10 6 13 15 13 15 12 13 4 3 7 4 8 17 19 18 18 13 8 8 5
39 37 35 35 32 30 27 26 25 25 28 7 3 3 4 2 10 12 14 6 13 4 2 5 4 4 7 4 6 8 11 9 5 11 2 3 3 4 7 14 17 17 19 21 17 18 14
41 40 39 37 36 34 31 30 28 28 28 4 7 6 3 6 5 8 6 8 9 10 6 10 8 7 11 11 5 10 15 16 16 18 19 2 1 5 7 14 16 13 14 13 21 20 21
43 43 43 41 40 37 35 35 32 30 36 15 10 6 4 5 10 10 8 5 10 9 10 5 4 7 2 1 11 14 18 22 21 21 16 13 9 6 9 8 12 10 18 11 10 19 28
43 45 44 44 42 41 39 37 35 33 38 24 13 6 3 5 6 9 8 11 12 11 12 15 10 9 4 6 7 9 8 14 20 23 19 16 13 7 5 10 12 17 17 18 14 16 22
41 46 45 44 44 42 41 39 38 36 35 33 18 18 5 3 7 9 7 8 10 9 10 14 14 10 6 4 7 10 6 14 7 7 20 20 18 12 7 7 7 12 12 7 6 11 15
40 44 45 45 45 44 42 41 39 37 36 33 15 18 7 3 9 6 6 6 10 7 7 10 1 0 10 6 8 9 13 15 14 16 10 2 1 16 14 11 11 12 12 11 3 5 8
40 43 45 43 44 44 42 41 40 39 37 34 24 17 13 4 9 9 9 8 6 4 6 2 2 8 7 7 6 8 7 8 12 19 18 15 6 3 9 9 10 7 8 10 6 9 13
41 41 42 44 43 44 44 41 40 40 38 35 14 21 16 6 3 8 13 14 11 14 4 3 4 4 4 3 3 2 3 4 10 11 15 12 3 4 1 4 22 23 13 8 10 6 4
Wind_Direction
213 211 212 217 224 228 236 239 247 249 257 265 270 275 272 273 277 283 285 286 288 293 298 300 306 317 337 272 251 269 298 298 295 289 273 274 282 282 276 277 289 280 280 283 282 271 270
219 217 217 222 225 231 236 243 243 246 254 260 271 282 286 283 283 282 284 284 284 285 291 294 297 303 285 266 269 275 284 276 269 285 285 281 282 287 285 292 286 287 289 284 282 286 281
214 217 218 220 223 228 234 235 235 238 245 263 278 284 292 294 296 293 294 293 290 288 287 289 292 287 248 245 270 278 277 275 275 277 276 270 275 273 285 289 284 279 287 286 271 266 265
213 214 214 217 221 225 228 234 238 245 251 255 264 273 277 293 297 296 295 294 293 294 296 292 289 273 260 256 261 263 266 265 263 261 257 264 265 266 265 271 276 274 276 273 270 264 257
218 216 217 219 222 228 233 233 239 246 247 254 263 268 275 279 283 286 288 291 291 291 293 298 281 225 276 284 231 258 255 257 261 250 240 245 261 248 253 248 261 249 258 264 274 265 265
214 216 214 217 230 231 235 238 239 242 246 259 273 275 271 277 283 288 286 287 288 282 278 256 251 287 247 249 248 251 241 234 241 245 248 208 243 240 219 232 238 246 252 253 255 258 245
209 213 222 231 231 231 230 233 234 240 247 253 255 260 284 297 306 304 318 295 255 229 218 220 201 234 285 290 225 241 245 253 245 248 247 223 231 232 237 230 241 260 273 276 279 288 290
212 219 223 228 227 227 230 232 238 237 239 243 250 254 282 300 312 313 306 246 284 354 286 243 248 259 251 265 271 265 265 239 223 238 240 241 246 244 254 256 256 258 258 262 268 266 276
214 216 223 227 226 228 231 237 236 239 235 240 248 251 264 289 310 291 253 265 285 346 269 269 247 246 245 235 249 251 240 244 227 246 243 253 253 243 249 257 262 256 260 260 268 275 269
206 210 215 221 225 226 228 229 236 235 235 240 245 243 241 275 286 271 259 265 246 272 275 272 245 246 234 232 256 248 236 235 245 246 244 255 262 258 264 260 253 256 261 268 272 294 281
202 209 214 215 217 222 224 218 217 220 226 227 227 234 233 219 318 292 356 347 117 221 269 277 236 164 199 190 239 206 221 217 237 242 234 251 248 249 250 254 256 254 253 264 315 289 279
200 202 211 217 221 225 226 227 222 220 222 223 220 220 221 238 252 262 286 304 210 223 237 251 189 184 190 204 237 229 187 211 236 241 240 250 250 253 256 265 265 286 282 270 284 271 258
201 204 210 214 221 227 229 229 230 226 223 220 216 220 218 233 247 258 281 249 226 229 215 247 242 194 217 234 226 235 238 215 218 230 235 239 245 250 250 264 271 252 263 235 239 235 249
213 214 220 223 226 228 232 232 230 226 223 222 223 223 230 233 243 264 272 235 232 229 234 276 329 258 224 223 233 221 232 239 223 247 259 230 245 239 234 236 242 234 233 225 236 239 251
223 217 225 232 236 237 239 238 232 226 218 215 224 234 236 233 232 247 233 226 217 238 269 251 320 291 274 267 249 256 226 249 247 221 242 242 253 262 250 222 229 238 232 234 249 266 275
225 226 228 234 240 243 242 237 235 222 220 222 223 243 237 226 224 226 236 245 249 249 276 329 259 286 287 284 276 262 258 256 231 272 26 271 264 262 267 321 253 237 252 233 194 227 227
232 231 233 232 234 234 234 230 225 223 221 206 158 332 259 225 207 212 229 226 242 251 270 243 311 308 291 298 300 299 306 316 59 314 336 281 222 277 285 228 240 200 232 215 215 245 242
238 232 231 230 227 228 225 226 225 216 205 183 140 206 218 223 218 202 206 213 234 256 255 275 288 284 285 277 286 286 296 32 350 3 343 37 295 275 247 279 278 295 268 257 214 197 264
239 235 230 230 231 227 228 223 222 217 199 157 186 228 243 163 230 222 228 235 244 252 250 165 243 82 354 326 324 294 277 101 326 9 29 353 286 327 319 19 285 270 280 259 346 222 186
242 237 237 231 227 225 228 227 220 218 194 177 161 205 220 187 241 240 223 235 239 236 251 252 215 257 263 278 292 296 305 294 265 343 205 303 254 263 289 311 310 309 292 296 173 197 248
236 238 234 230 227 222 218 220 211 201 199 173 169 225 188 202 229 230 224 221 242 237 235 5 261 247 289 294 293 274 313 330 312 232 225 274 259 253 292 311 311 304 313 284 272 258 243
234 230 229 230 226 223 217 212 206 199 186 156 168 215 204 262 228 215 230 225 231 197 114 190 257 22 21 293 305 325 341 333 298 340 232 190 283 335 252 264 293 318 302 286 266 241 260
237 231 226 222 223 221 216 213 209 200 185 140 185 276 281 173 195 202 226 240 249 261 265 243 271 257 286 289 215 273 283 284 263 276 293 157 31 5 300 320 320 313 292 303 316 257 246
233 229 226 221 217 216 212 212 208 202 194 194 197 212 218 199 199 208 234 218 249 224 230 249 222 261 276 5 270 275 279 274 267 253 243 262 247 262 271 289 265 268 275 261 267 302 292
230 224 221 218 214 212 209 208 206 204 203 206 208 168 218 228 222 226 197 196 214 224 218 236 254 248 240 270 296 293 283 279 256 240 237 225 237 229 234 249 285 280 266 269 284 300 293
228 219 216 216 212 208 206 206 204 200 205 205 219 209 225 246 237 214 223 253 236 224 243 256 256 243 196 237 239 246 265 296 298 276 220 218 218 226 205 227 245 251 269 257 273 272 254
222 213 211 211 209 206 205 203 202 199 203 201 215 210 202 222 252 145 190 217 260 269 255 267 201 243 212 223 241 241 254 265 267 265 264 128 352 237 227 237 254 259 272 273 255 247 33
214 209 207 205 203 200 200 201 200 197 201 196 211 210 215 223 257 277 266 256 268 265 257 250 330 220 213 219 236 235 254 256 260 259 265 277 272 274 231 229 247 199 333 285 287 324 277
207 205 206 197 197 194 201 199 196 195 198 196 206 209 220 243 268 303 276 267 264 265 309 208 229 282 178 229 262 330 322 312 291 268 265 266 314 323 339 331 301 302 320 338 301 272 360